Regional Weather Roundup
Issued by NWS

Home | Current Version | Previous Version | Text Only | Print | Product List | Glossary On
Versions: 1 2 3 4 5 6 7 8 9 10 11 12 13 14 15 16 17 18 19 20 21 22 23 24 25 26 27 28 29 30 31 32 33 34 35 36 37 38 39 40 41 42 43 44 45 46 47 48 49 50
000
ASUS43 KOAX 171810
RWRNE

WEATHER ROUNDUP FOR NEBRASKA
NATIONAL WEATHER SERVICE OMAHA NE
1200 PM CST WED JAN 17 2018

NOTES: SATELLITE DATA IS BEING USED TO AUGMENT CLOUD COVER ABOVE
       12000 FEET.
       "FAIR" INDICATES FEW OR NO CLOUDS BELOW 12,000 FEET WITH NO
       SIGNIFICANT WEATHER AND/OR OBSTRUCTIONS TO VISIBILITY.


NEZ001>004-019>022-054>056-171900-
NEBRASKA PANHANDLE

CITY           SKY/WX    TMP DP  RH WIND       PRES   REMARKS
SCOTTSBLUFF    SUNNY     25  13  60 NW9       30.31S WCI  15
6HR MIN TEMP:   4; 6HR MAX TEMP:  25;

ALLIANCE       SUNNY     29  16  58 CALM      30.28S
6HR MIN TEMP:  -1; 6HR MAX TEMP:  29;

CHADRON        SUNNY     34  15  46 W8        30.32S WCI  27
6HR MIN TEMP:   6; 6HR MAX TEMP:  34;

GORDON         FAIR      37  14  38 NW6       30.27F WCI  33
6HR MIN TEMP:   9; 6HR MAX TEMP:  37;

KIMBALL        SUNNY     43  15  31 NW17G24   30.29F
SIDNEY         SUNNY     41  19  41 NW13      30.29S
6HR MIN TEMP:   7; 6HR MAX TEMP:  41;

$$

NEZ057>060-069>072-079>082-171900-
SOUTHWEST NEBRASKA

CITY           SKY/WX    TMP DP  RH WIND       PRES   REMARKS
NORTH PLATTE   SUNNY     25  10  53 CALM      30.33F
6HR MIN TEMP:   4; 6HR MAX TEMP:  25;

IMPERIAL       SUNNY     30  12  47 CALM      30.31F
6HR MIN TEMP:   0; 6HR MAX TEMP:  30;

LEXINGTON      SUNNY     26  10  52 SW5       30.36F WCI  20
MCCOOK         SUNNY     25  12  58 SW5       30.36F WCI  19
6HR MIN TEMP:   2; 6HR MAX TEMP:  25;

OGALLALA       SUNNY     32  17  53 W8        30.31F WCI  24
$$

NEZ005>010-023>029-035>040-094-171900-
NORTH CENTRAL NEBRASKA

CITY           SKY/WX    TMP DP  RH WIND       PRES   REMARKS
VALENTINE      SUNNY     37  15  40 W10       30.26F WCI  30
6HR MIN TEMP:   6; 6HR MAX TEMP:  37;

AINSWORTH      SUNNY     33  17  51 W7        30.26F WCI  27
BROKEN BOW     SUNNY     23   9  55 W8        30.33S WCI  14
6HR MIN TEMP:   3; 6HR MAX TEMP:  23;

O`NEILL        SUNNY     29  14  52 SW14      30.29F WCI  19
ORD            SUNNY     25   9  50 SW10      30.35F WCI  15
6HR MIN TEMP:   8; 6HR MAX TEMP:  26;

THEDFORD       SUNNY     33  11  40 W7        30.29F WCI  27
$$

NEZ041-046>049-061>064-073>077-083>087-171900-
SOUTH CENTRAL NEBRASKA

CITY           SKY/WX    TMP DP  RH WIND       PRES   REMARKS
GRAND ISLAND   CLOUDY    24   8  50 SW14      30.40F WCI  12
6HR MIN TEMP:   8; 6HR MAX TEMP:  24;

AURORA         SUNNY     24   8  51 SW15      30.42F WCI  11
HASTINGS       SUNNY     21   6  52 SW13G21   30.42F WCI   9
6HR MIN TEMP:   6; 6HR MAX TEMP:  21;

HEBRON         CLOUDY    20   8  58 SW10G16   30.50F WCI   9
HOLDREGE       CLOUDY    23  11  58 SW12      30.38F WCI  12
KEARNEY        CLOUDY    20   8  60 SW14      30.40F WCI   7
YORK           SUNNY     23   9  54 SW16      30.44F WCI  10
$$

NEZ011>018-030>034-042>045-171900-
NORTHEAST NEBRASKA

CITY           SKY/WX    TMP DP  RH WIND       PRES   REMARKS
NORFOLK        CLOUDY    22  10  60 SW17      30.35F WCI   8
6HR MIN TEMP:   7; 6HR MAX TEMP:  22;

ALBION         CLOUDY    27  11  52 SW10      30.36F WCI  17
BLAIR          CLOUDY    22   9  57 S17       30.44F WCI   8
COLUMBUS       SUNNY     29  10  45 SW18      30.42F WCI  16
FREMONT        SUNNY     24   9  51 S13       30.45F WCI  13
TEKAMAH        SUNNY     23  10  57 S15       30.45F WCI  10
6HR MIN TEMP:   0; 6HR MAX TEMP:  23;

WAYNE          CLOUDY    23   9  55 SW14      30.37F WCI  11
$$

NEZ050>053-065>068-078-088>093-171900-
SOUTHEAST NEBRASKA

CITY           SKY/WX    TMP DP  RH WIND       PRES   REMARKS
LINCOLN        SUNNY     24   6  46 SW15      30.49F WCI  11
6HR MIN TEMP:   3; 6HR MAX TEMP:  24;

OMAHA EPPLEY   CLOUDY    22   8  55 S10       30.49F WCI  11
6HR MIN TEMP:   1; 6HR MAX TEMP:  22;

BEATRICE       CLOUDY    20   9  62 SW12      30.52F WCI   7
FALLS CITY     CLOUDY    21   6  52 SW9       30.57F WCI  11
6HR MIN TEMP:  -6; 6HR MAX TEMP:  21;

NEBRASKA CITY  CLOUDY    20   8  61 SW15      30.51F WCI   6
PLATTSMOUTH    CLOUDY    19   9  65 S12       30.50F WCI   6
$$

NEZ044-045-051>053-067-171900-
OMAHA AREA

CITY           SKY/WX    TMP DP  RH WIND       PRES   REMARKS
OMAHA EPPLEY   CLOUDY    22   8  55 S10       30.49F WCI  11
6HR MIN TEMP:   1; 6HR MAX TEMP:  22;

BLAIR          CLOUDY    22   9  57 S17       30.44F WCI   8
FREMONT        SUNNY     24   9  51 S13       30.45F WCI  13
MILLARD        CLOUDY    25   7  45 SW10      30.50F WCI  15
PLATTSMOUTH    CLOUDY    19   9  65 S12       30.50F WCI   6
WAHOO          FAIR      25   9  50 SW14      30.46F WCI  13
$$



USA.gov is the U.S. government's official web portal to all federal, state and local government web resources and services.